"Pseudo-MPEC" for P10Lpcl

Created 2019 Jan 17 12:18:44 UT using Find_Orb

Click here for an explanation of pseudo-MPECs

 
 Astrometry: 
     P10Lpcl  C2018 12 12$\6Astrometryi$U81vwcd/kXdyW(R.ymSp27+uE)S[@v9O5%2hDF51
     P10Lpcl  C2018 12 12g@B@3vjE3OA2XNGRK;\`@brb,mvc,dCM*?m=o]]27oDfqw72YQ,uF51
     P10Lpcl  C2019 01 11V=redacted;g)GaPVg49yLcwlZN)F-Z,(].d-a.c$PF%kvwGc2;8F51
     P10Lpcl  C2019 01 118OGx2*`PkH8TLhRYP)[9;vUSTH]FjJ8@K6R/P\xt.%=.1P8:1QVaF51
     P10Lpcl  C2019 01 11SKSsQC%`taaL6oQSXb)pWo3VbPKQAclick%WOR.L2nM/McYXkuF;F51
     P10Lpcl  C2019 01 11o+_G'$0qf\]470DtWv6HK6c#+[veolpTmwsK-D7D[K[kIyeOV(!lF51
     P10Lpcl  C2019 01 12.23158 06 56 15.23 +57 42 48.2    ~1C6I 22.3 GVNEOCPI52
     P10Lpcl  C2019 01 12.23490 06 56 14.77 +57 42 48.1    ~1C6I 21.2 GVNEOCPI52
     P10Lpcl  C2019 01 12.23823 06 56 14.32 +57 42 47.7    ~1C6I 20.9 GVNEOCPI52
     P10Lpcl  C2019 01 12.24155 06 56 13.90 +57 42 46.4    ~1C6I 20.9 GVNEOCPI52
     P10Lpcl ^C2019 01 12.33445906 56 01.966+57 42 25.55   ~1CAI 21.49GVNEOCP568
     P10Lpcl ^C2019 01 12.33547506 56 01.832+57 42 25.35   ~1CAI 21.46GVNEOCP568
     P10Lpcl ^C2019 01 12.33655606 56 01.685+57 42 25.10   ~1CAI 21.50GVNEOCP568
     P10Lpcl  C2019 01 12PUg*H?WsUd$6i_(m8GMB#VwJV/V7MgsnqA3)n:82OVX1IJXvl6,iF51
     P10Lpcl  C2019 01 12Cfk78fKu5?3!7WIMN`W@vcd6L=,%hOherelY@^EYilj0/Y6\-v9(F51
     P10Lpcl  C2019 01 12Hb+Q.?rl?=Kb\r,l'.%=Egn^Itoo7,29o=kW6=JU4OqpG$NfvF1cF51
     P10Lpcl  C2019 01 17YLmMudrR!5V0I,\fortS`j\Lf\8)Pb;L[P`aw36+i=@y'C+c=9#.V06
     P10Lpcl  C2019 01 17;^Mg?$M[!`q=E:4?:pcyYZ8]hgAqxcOm![@ZbU6IMSHgBh[8Q[K1V06
     P10Lpcl  C2019 01 17mFT;GVvBk^w'a$40FVR'H)tnj\_@',f[G4lCV]\Sdw2RaX/9_1v+V06
     P10Lpcl  C2019 01 17O7(0explanation_V\r9rWp801JsK/^GeDlef:p(Cb0-G'd]SW0YV06

Station data:
(568) Mauna Kea  (N19.826116 W155.472200)  US/Hawaii.
(F51) Pan-STARRS 1, Haleakala  (N20.707235 W156.255910)  US/Hawaii.
   Observers N. Primak, A. Schultz, S. Watters, J. Thiel, T. Goggia. Measurer
   PS1 Science Consortium. 1.8-m Ritchey-Chrétien + CCD.
(I52) Steward Observatory, Mt. Lemmon Station  (N32.442547 W110.788920)
   US/Arizona.  Observers B. M. Africano, E. J. Christensen, G. A. Farneth,
   D. C. Fuls, A. R. Gibbs, A. D. Grauer, H. Groeller, J. A. Johnson, R. A.
   Kowalski, S. M. Larson, G. J. Leonard, R. L. Seaman, F. C. Shelly. 1.0-m
   reflector + CCD.
(V06) Catalina Sky Survey-Kuiper  (N32.416847 W110.732550)  US/Arizona.
   Observers B. M. Africano, E. J. Christensen, G. A. Farneth, D. C. Fuls, A.
   R. Gibbs, A. D. Grauer, H. Groeller, J. A. Johnson, R. A. Kowalski, S. M.
   Larson, G. J. Leonard, R. L. Seaman, F. C. Shelly. 1.55-m reflector + CCD.

Orbital elements:  P10Lpcl
   Perihelion 2020 Mar 28.164385 +/- 0.21 TT =  3:56:42 (JD 2458936.664385)
Epoch 2019 Jan 17.0 TT = JDT 2458500.5   Earth MOID: 0.7654   AutoNEOCP
M 196.67499837 +/- 0.07             (J2000 ecliptic)
n   0.37445744 +/- 1.2e-5           Peri.  270.85907 +/- 0.053
a   1.90634310 +/- 4.09e-5          Node     1.91983 +/- 0.007
e   0.1351013 +/- 8.08e-5           Incl.   20.34136 +/- 0.0013
P   2.63/961.37d           H 18.7   G  0.15   U  5.3  
q 1.64879358 +/- 0.000129    Q 2.16389263 +/- 0.000191
From 20 observations 2018 Dec. 12-2019 Jan. 17; mean residual 0".20
Residuals in arcseconds: 
181212 F51  .19+  .20+    190112 I52  .04-  .03-    190112 F51  .07+  .04-    
181212 F51  .19-  .20-    190112 I52  .06-  .32+    190112 F51  .05+  .02-    
190111 F51  .04+  .25+    190112 I52  .14+  .23-    190117 V06  .54+  .00     
190111 F51  .07-  .02+    190112 568  .09-  .03+    190117 V06  .03-  .29+    
190111 F51  .09-  .21+    190112 568  .07-  .05+    190117 V06  .35-  .22-    
190111 F51  .01-  .03+    190112 568  .09-  .04+    190117 V06  .19-  .03-    
190112 I52  .07+  .68-    190112 F51  .25+  .12+    

Ephemerides (geocentric):
Date (UTC) HH   RA              Dec         delta   r     elong  mag " sig PA
---- -- -- --  -------------   -----------  ------ ------ -----  --- ---- ---
2019 01 17 12  06 45 18.223   +57 14 41.84  1.2977 2.1553 141.3 21.8 .198   2
2019 01 17 13  06 45 13.295   +57 14 25.08  1.2978 2.1552 141.3 21.8 .200   2
2019 01 17 14  06 45 08.373   +57 14 08.27  1.2979 2.1552 141.3 21.8 .202   2
2019 01 17 15  06 45 03.455   +57 13 51.41  1.2980 2.1552 141.3 21.8 .205   2
2019 01 17 16  06 44 58.543   +57 13 34.50  1.2981 2.1552 141.3 21.8 .207   2
2019 01 17 17  06 44 53.635   +57 13 17.53  1.2982 2.1552 141.2 21.8 .209   2
2019 01 17 18  06 44 48.732   +57 13 00.52  1.2983 2.1552 141.2 21.8 .212   1
2019 01 17 19  06 44 43.834   +57 12 43.45  1.2984 2.1552 141.2 21.8 .214   1
2019 01 17 20  06 44 38.940   +57 12 26.34  1.2986 2.1551 141.2 21.8 .216   1
2019 01 17 21  06 44 34.052   +57 12 09.17  1.2987 2.1551 141.2 21.8 .219   1
2019 01 17 22  06 44 29.168   +57 11 51.95  1.2988 2.1551 141.1 21.8 .221   1
2019 01 17 23  06 44 24.290   +57 11 34.68  1.2989 2.1551 141.1 21.8 .223   1
2019 01 18 00  06 44 19.416   +57 11 17.36  1.2990 2.1551 141.1 21.8 .226   1
2019 01 18 01  06 44 14.547   +57 10 59.99  1.2991 2.1551 141.1 21.8 .228   1
2019 01 18 02  06 44 09.683   +57 10 42.56  1.2993 2.1550 141.1 21.8 .230   1
2019 01 18 03  06 44 04.825   +57 10 25.09  1.2994 2.1550 141.0 21.8 .233   1
2019 01 18 04  06 43 59.971   +57 10 07.57  1.2995 2.1550 141.0 21.8 .235   1
2019 01 18 05  06 43 55.122   +57 09 49.99  1.2996 2.1550 141.0 21.8 .237   1
2019 01 18 06  06 43 50.278   +57 09 32.37  1.2997 2.1550 141.0 21.8 .240   1
2019 01 18 07  06 43 45.439   +57 09 14.70  1.2999 2.1550 141.0 21.8 .242   1
2019 01 18 08  06 43 40.605   +57 08 56.97  1.3000 2.1549 140.9 21.8 .244   1
2019 01 18 09  06 43 35.776   +57 08 39.20  1.3001 2.1549 140.9 21.8 .247   1
2019 01 18 10  06 43 30.952   +57 08 21.37  1.3002 2.1549 140.9 21.8 .249   1
2019 01 18 11  06 43 26.134   +57 08 03.50  1.3003 2.1549 140.9 21.8 .252   0
2019 01 18 12  06 43 21.320   +57 07 45.57  1.3005 2.1549 140.9 21.8 .254   0
2019 01 18 13  06 43 16.511   +57 07 27.60  1.3006 2.1549 140.8 21.8 .256   0
2019 01 18 14  06 43 11.708   +57 07 09.57  1.3007 2.1548 140.8 21.8 .259   0
2019 01 18 15  06 43 06.909   +57 06 51.50  1.3008 2.1548 140.8 21.8 .261   0
2019 01 18 16  06 43 02.116   +57 06 33.37  1.3010 2.1548 140.8 21.8 .264   0
2019 01 18 17  06 42 57.328   +57 06 15.20  1.3011 2.1548 140.8 21.8 .266   0
2019 01 18 18  06 42 52.545   +57 05 56.97  1.3012 2.1548 140.7 21.8 .269   0
2019 01 18 19  06 42 47.767   +57 05 38.70  1.3013 2.1548 140.7 21.8 .271   0
2019 01 18 20  06 42 42.994   +57 05 20.38  1.3014 2.1547 140.7 21.8 .273   0
2019 01 18 21  06 42 38.227   +57 05 02.00  1.3016 2.1547 140.7 21.8 .276   0
2019 01 18 22  06 42 33.464   +57 04 43.58  1.3017 2.1547 140.6 21.8 .278   0
2019 01 18 23  06 42 28.707   +57 04 25.11  1.3018 2.1547 140.6 21.8 .281   0
2019 01 19 00  06 42 23.955   +57 04 06.59  1.3019 2.1547 140.6 21.8 .283   0
2019 01 19 01  06 42 19.208   +57 03 48.02  1.3021 2.1547 140.6 21.8 .286   0
2019 01 19 02  06 42 14.467   +57 03 29.40  1.3022 2.1546 140.6 21.8 .288   0
2019 01 19 03  06 42 09.730   +57 03 10.74  1.3023 2.1546 140.5 21.8 .291   0
2019 01 19 04  06 42 04.999   +57 02 52.02  1.3025 2.1546 140.5 21.8 .293 179
2019 01 19 05  06 42 00.274   +57 02 33.25  1.3026 2.1546 140.5 21.8 .295 179
2019 01 19 06  06 41 55.553   +57 02 14.44  1.3027 2.1546 140.5 21.8 .298 179
2019 01 19 07  06 41 50.838   +57 01 55.58  1.3028 2.1546 140.5 21.8 .300 179
2019 01 19 08  06 41 46.128   +57 01 36.67  1.3030 2.1545 140.4 21.8 .303 179
2019 01 19 09  06 41 41.423   +57 01 17.71  1.3031 2.1545 140.4 21.8 .305 179
2019 01 19 10  06 41 36.724   +57 00 58.70  1.3032 2.1545 140.4 21.8 .308 179
2019 01 19 11  06 41 32.030   +57 00 39.64  1.3033 2.1545 140.4 21.8 .310 179